Location: Eastchurch
(51.4000°N, 0.8667°E)
Time: 22:09:24
(UTC+00:00)

NOSS 2-1 (D) - Pass Details

Date: 19 January 2026
Orbit: 374 x 1675 km, 63.3° (Epoch: 7 February)

Event Time Altitude Azimuth Distance (km) Brightness Sun altitude
Rises 17:02:56 0° 319° (NW) 2,276 6.7 -6.2°
Reaches altitude 10° 17:04:57 10° 330° (NNW) 1,471 5.6 -6.5°
Maximum altitude 17:07:51 31° 36° (NE) 813 3.7 -6.9°
Drops below altitude 10° 17:11:19 10° 101° (E) 1,784 5.4 -7.4°
Enters shadow 17:13:40 - 110° (ESE) 2,736 6.4 -7.7°
